SCP
0 0 0 0 0 0 0 0 0 0 0 0 0 0 0 0 0 0 0 0 0 0 0 0 0 0 0 0 0 0 0 0 0 0 0 0 0 0 0 0 0 0 0
0 0 0 0 0 0 0 0 0 0 0 0 0 0 0 0 0 0 0 0 0 0 0 0 0 0 0 0 0 0 0 0 0 0 0 0 0 0 0 0 0 0 0
0 0 0 0 0 0 0 0 0 0 0 0 0 0 0 0 0 0 0 0 0 0 0 0 0 0 0 0 0 0 0 0 0 0 0 0 0 0 0 0 0 0 0
0 0 0 0 0 0 0 0 0 0 0 0 0 0 0 0 0 0 0 0 0 0 0 0 0 0 0 0 0 0 0 0 0 0 0 0 0 0 0 0 0 0 0
0 0 0 0 0 0 0 1 0 0 0 0 0 0 0 0 0 0 0 0 0 0 0 0 0 0 0 0 0 0 0 0 0 0 0 0 0 0 0 0 0 0 0
0 0 0 0 0 0 1 1 1 0 0 0 0 0 0 0 0 0 0 0 0 0 0 0 0 0 0 0 0 0 0 0 0 0 0 0 0 0 0 0 0 0 0
0 0 0 0 0 0 0 1 0 0 0 0 0 0 0 0 0 0 0 0 0 0 0 0 0 0 0 0 0 0 0 0 0 0 0 0 0 0 0 0 0 0 0
0 0 0 0 0 0 0 0 0 0 0 0 0 0 0 0 0 0 0 0 0 0 0 0 0 0 0 0 0 0 0 0 0 0 0 0 0 0 0 0 0 0 0
0 0 0 0 0 0 0 0 0 0 0 0 0 0 0 0 0 0 0 0 0 0 0 0 0 0 0 0 0 0 0 0 0 0 0 0 0 0 0 0 0 0 0
0 0 0 0 0 0 0 0 0 0 0 0 0 0 0 0 0 0 0 0 0 0 0 0 0 0 0 0 0 0 0 0 0 0 0 0 0 0 0 0 0 0 0
0 0 0 0 0 0 0 0 0 0 0 0 0 0 0 0 0 0 0 0 0 0 0 0 0 0 0 0 0 0 0 0 0 0 0 0 0 0 0 0 0 0 0
0 0 0 0 0 0 0 0 0 0 0 0 0 0 0 0 0 0 0 0 0 0 0 0 0 0 0 0 0 0 0 0 0 0 0 0 0 0 0 0 0 0 0
-0 0 0 0 0 0 0 0 0 0 0 0 0 0 0 0 0 0 0 0 0 0 0 0 0 0 0 0 0 0 0 0 0 0 0 0 0 0 0 0 0 0 0
0 0 0 0 0 0 0 0 0 0 0 0 0 0 0 0 0 0 0 0 0 0 0 0 0 0 0 0 0 0 0 0 0 0 0 0 0 0 0 0 0 0 0
0 0 0 0 0 0 0 0 0 0 0 0 0 0 0 0 -0 -0 -0 0 0 0 0 0 0 0 0 0 0 0 0 0 0 0 0 0 0 0 0 0 0 0 0
0 0 0 0 0 0 0 0 0 0 0 0 0 0 0 -0 -0 -0 -0 -0 0 0 0 0 0 0 0 0 0 0 0 0 0 0 0 0 0 0 0 0 0 0 0
0 0 0 0 0 0 0 0 0 0 0 0 0 0 0 -0 -0 -0 -0 -0 0 0 0 0 0 0 0 0 0 0 0 0 0 0 0 0 0 0 0 0 0 0 0
0 0 0 0 0 0 0 0 0 0 0 0 0 0 0 0 0 0 0 0 0 0 0 0 0 0 0 0 0 0 0 0 0 0 0 0 0 0 0 0 0 0 0
0 0 0 0 0 0 0 0 0 0 0 0 0 0 0 0 0 0 0 0 0 0 0 0 0 0 0 0 0 0 0 0 0 0 0 0 0 0 0 0 0 0 0
0 0 0 0 0 0 0 0 0 0 -0 -0 -0 0 0 0 0 0 0 0 0 0 0 0 0 0 0 0 0 0 0 0 0 0 0 0 0 0 0 0 0 0 0
0 0 0 0 0 0 0 0 0 -0 -0 -0 -0 -0 0 0 0 0 0 0 0 0 0 0 0 0 0 0 0 0 0 0 0 0 0 0 0 0 0 0 0 0 0
-0 -0 0 0 0 0 0 0 0 -0 -0 -0 -0 -0 0 0 0 0 0 0 0 0 0 0 0 0 0 0 0 0 0 0 0 0 0 0 0 0 0 0 0 0 0
-0 -0 0 0 0 0 -0 -0 -0 -0 -0 -0 -0 0 0 0 0 0 0 0 0 0 0 0 0 0 0 0 0 0 0 0 0 0 0 0 0 0 0 0 0 0 0
0 0 0 0 0 0 -0 -0 -0 0 0 0 0 0 0 0 0 0 0 0 0 0 0 0 0 0 0 0 0 0 0 0 0 0 0 0 0 0 0 0 0 0 0
0 0 0 0 0 0 0 0 0 0 0 0 0 0 0 0 0 0 0 0 0 0 0 0 0 0 0 0 0 0 0 0 0 0 0 0 0 0 0 0 0 0 0
0 0 0 0 0 0 0 0 0 0 0 0 0 0 0 0 0 0 0 0 0 0 0 0 0 0 0 0 0 0 0 0 0 0 0 0 0 0 0 0 0 0 0
Wind_Speed
7 4 4 4 3 3 3 4 3 3 3 2 2 1 2 2 2 3 4 4 4 4 4 3 3 3 3 4 4 4 4 3 2 1 3 4 4 5 5 4 4 5 5
4 4 3 3 4 5 5 4 4 4 4 3 3 3 2 2 3 3 4 5 5 5 4 4 4 4 4 5 5 4 3 3 3 2 1 2 3 3 4 4 4 5 4
6 4 4 4 4 5 6 5 5 5 4 3 1 1 1 1 2 3 3 4 5 5 6 6 5 5 5 5 6 5 6 4 4 4 3 2 4 3 3 5 5 5 4
5 4 5 5 5 6 5 5 5 5 4 3 3 3 3 4 5 4 4 4 5 5 6 6 6 6 5 6 7 6 5 5 5 4 4 4 3 3 3 3 3 4 5
4 5 5 6 5 4 4 4 4 4 4 4 4 4 4 4 3 3 4 5 4 5 6 6 6 6 6 7 7 6 6 6 6 5 4 3 4 4 4 6 4 4 4
4 4 3 3 3 2 3 3 4 4 4 4 4 4 5 4 4 5 5 5 4 4 6 6 6 7 6 7 7 7 7 7 7 6 5 5 4 4 4 6 6 6 5
2 2 2 3 3 3 3 3 3 3 3 4 4 4 5 5 6 6 5 5 5 4 6 6 6 6 6 7 7 7 7 7 8 8 7 6 6 5 4 5 5 6 5
2 3 3 3 4 4 4 3 3 3 3 3 3 3 4 4 4 5 5 6 5 6 6 6 7 7 7 7 7 6 7 7 8 9 8 6 6 5 5 5 4 5 5
2 3 4 4 3 4 4 3 3 3 3 3 3 3 3 4 5 5 5 5 5 6 6 6 7 7 7 7 7 6 7 7 8 8 8 7 6 5 5 5 5 5 6
3 4 4 3 3 3 2 2 3 3 3 2 3 3 4 4 4 4 6 6 6 6 6 6 7 7 7 7 7 7 7 7 7 6 7 7 5 5 5 5 5 5 6
4 4 4 3 3 1 1 2 2 2 2 3 3 3 4 4 4 4 6 6 6 6 6 6 6 6 6 7 7 7 7 8 7 7 8 8 7 6 5 5 5 5 5
4 4 4 3 3 3 2 2 2 3 3 3 3 4 4 4 4 5 6 6 6 6 5 5 6 6 6 6 7 8 7 8 8 8 8 8 6 7 5 5 6 5 5
4 3 3 3 3 3 3 3 3 4 4 3 3 4 4 4 5 6 6 6 6 5 5 5 6 6 6 6 6 7 7 7 7 7 8 7 7 7 6 6 5 5 5
3 3 3 3 4 4 3 3 4 4 4 3 3 4 4 5 5 6 6 6 5 5 5 5 5 5 5 5 5 5 5 5 6 7 7 7 7 8 7 6 6 5 5
4 4 4 3 4 4 4 4 4 4 4 3 4 5 5 5 5 5 6 5 5 5 5 5 4 4 4 4 4 4 4 5 5 5 5 6 8 10 8 6 5 5 5
4 4 4 4 4 4 5 5 5 5 4 4 5 5 5 5 5 5 5 5 5 5 4 4 4 4 4 6 7 5 3 4 5 5 5 5 6 7 8 8 8 8 7
4 4 4 4 4 4 4 4 5 4 4 4 4 4 5 5 5 5 5 5 5 4 5 4 4 4 5 7 7 7 4 3 4 4 3 3 3 4 3 4 6 7 9
4 4 4 4 4 4 4 4 4 4 4 4 4 5 5 6 6 5 5 5 4 4 4 4 4 4 6 8 8 7 4 3 3 3 3 3 3 3 3 2 3 3 4
4 4 3 3 4 4 4 4 4 4 4 5 5 5 5 5 6 5 5 5 4 4 4 4 4 4 6 8 7 6 2 2 3 3 3 3 3 4 4 2 2 2 2
3 3 3 3 4 4 4 4 5 5 5 6 6 6 5 5 5 5 5 4 3 4 4 4 4 4 5 6 6 5 2 2 2 2 2 4 4 4 4 3 3 3 2
3 3 3 3 4 4 4 4 5 6 6 6 5 5 5 5 5 4 4 4 3 3 3 4 4 4 4 5 6 5 2 2 2 2 2 2 3 3 3 2 2 3 2
4 4 4 4 5 4 4 5 6 6 6 5 5 5 5 5 4 3 4 3 3 3 3 3 4 3 4 5 5 5 4 3 2 2 2 2 3 4 4 2 1 1 1
4 4 3 5 5 4 4 5 7 6 5 5 5 5 5 4 4 3 3 3 2 2 3 3 3 4 3 3 4 4 4 4 2 1 2 2 2 3 2 2 1 1 1
4 4 4 5 6 6 5 5 6 6 5 5 5 5 4 4 4 3 2 2 2 2 3 2 3 3 3 2 2 1 1 1 1 1 1 2 2 2 2 2 2 1 2
4 4 4 5 6 6 6 6 6 5 5 5 5 4 4 4 3 3 3 3 3 3 3 3 2 3 3 4 4 3 2 1 1 0 0 1 1 1 1 1 1 1 2
4 4 5 5 6 6 6 6 5 5 4 5 4 3 3 3 3 3 4 5 5 7 7 6 4 3 4 5 4 4 3 3 1 1 1 1 1 0 0 1 1 1 2
Wind_Direction
251 238 218 208 198 199 203 207 214 224 189 180 190 211 240 245 243 236 234 232 233 232 226 237 235 229 231 235 235 235 231 231 220 261 285 276 254 246 240 239 238 240 240
248 230 216 206 202 205 210 206 219 224 205 198 198 203 223 241 242 242 242 234 233 232 234 227 232 231 234 237 235 227 227 232 205 198 268 291 291 255 241 239 237 239 236
219 217 211 214 209 211 212 214 222 224 215 202 191 229 266 279 265 257 250 242 236 234 233 232 231 230 226 234 234 224 220 230 223 203 196 218 248 285 249 235 239 237 240
214 211 212 217 217 221 219 218 227 225 215 196 196 211 231 247 253 256 257 259 244 241 238 236 235 235 232 233 234 230 223 218 226 221 221 227 223 245 279 262 242 244 246
217 216 217 220 230 224 221 224 229 228 217 210 204 214 238 249 263 266 268 267 257 246 243 238 236 237 236 236 236 232 226 222 224 221 218 233 243 237 248 273 272 258 244
239 234 233 229 246 243 228 227 224 228 220 219 214 214 233 250 265 269 270 272 267 256 247 241 236 238 238 236 236 232 229 229 228 228 220 218 222 227 231 255 267 270 266
245 249 247 245 251 247 236 230 221 235 232 225 225 224 231 237 245 255 258 265 267 263 255 251 243 242 240 240 236 232 233 230 227 229 230 226 233 229 232 248 264 272 278
281 267 259 255 255 251 243 234 234 243 245 237 243 242 237 241 250 254 257 257 259 260 260 255 249 246 242 243 237 237 235 233 231 235 233 233 236 231 228 231 242 271 279
285 280 280 268 254 248 243 234 234 253 260 254 256 262 253 252 259 265 264 263 261 263 258 254 255 251 244 240 236 238 237 235 233 233 233 235 236 232 231 230 223 234 263
306 301 296 288 271 249 243 254 243 244 257 260 259 278 270 265 265 270 271 270 268 265 262 259 257 256 251 241 238 240 238 236 237 232 231 235 236 232 229 230 233 233 241
302 300 301 299 300 308 283 274 267 260 274 275 275 280 281 280 279 274 271 272 273 269 264 262 260 257 256 244 237 241 240 237 240 240 235 237 232 232 232 230 232 237 235
308 303 303 317 328 316 309 300 289 278 273 275 276 276 280 287 289 283 281 280 280 275 270 269 269 263 261 249 242 244 242 238 240 243 237 236 231 229 233 230 231 234 229
313 313 315 318 319 318 315 312 299 288 285 286 281 283 290 293 293 291 290 287 285 285 284 274 270 269 267 262 251 242 240 239 238 239 235 232 227 231 232 230 228 231 235
311 315 314 316 319 318 317 312 308 305 303 300 293 287 288 288 290 291 293 290 286 283 283 279 272 269 268 269 264 246 241 242 246 244 238 230 227 230 230 229 227 225 230
317 311 309 313 321 320 318 315 313 314 312 307 302 294 292 292 293 293 294 293 292 291 287 287 288 282 275 270 265 258 247 245 253 253 245 236 235 237 235 231 225 221 220
301 306 309 310 312 313 313 315 314 313 315 302 294 295 303 308 302 296 300 303 301 297 296 293 289 287 286 290 290 283 266 257 254 259 258 254 248 242 242 243 243 233 222
298 306 305 298 302 304 306 307 307 314 314 305 303 310 314 314 306 303 311 307 301 298 300 295 288 284 286 293 292 287 286 273 257 256 256 268 257 247 228 243 255 245 241
304 310 309 308 312 311 315 315 319 318 313 312 313 315 314 309 307 312 308 300 294 296 292 290 288 286 287 293 294 294 288 279 272 261 247 244 259 243 231 227 240 242 243
298 300 304 306 315 320 324 328 324 324 321 315 313 309 303 301 303 305 301 299 297 293 282 276 277 279 284 290 293 299 284 281 282 275 266 251 252 254 249 232 235 248 266
314 317 324 329 331 327 330 332 323 321 313 310 310 307 303 299 300 302 304 304 299 292 285 281 277 273 279 290 296 302 277 282 291 297 286 276 273 275 262 223 207 223 235
323 328 332 331 322 319 328 325 316 308 305 307 307 306 306 303 298 298 299 302 303 306 304 298 294 286 283 291 287 291 270 250 269 276 281 283 301 305 292 272 226 215 214
332 332 333 327 321 321 328 318 307 303 307 308 308 307 306 304 306 301 303 304 304 308 308 307 309 300 295 294 286 285 282 283 255 260 268 283 310 326 328 305 233 199 187
323 325 325 323 322 323 322 308 305 310 311 310 309 310 312 314 312 307 306 309 304 297 299 306 308 307 301 293 298 301 293 299 294 268 283 311 325 335 342 348 4 104 135
320 325 328 324 320 322 319 306 307 311 309 308 309 311 314 318 324 321 313 309 308 303 301 303 299 303 309 296 286 290 309 315 332 2 22 14 17 8 5 9 49 82 115
313 317 314 309 309 316 316 315 315 317 312 308 307 310 310 310 319 324 320 307 299 292 296 292 285 292 301 296 295 294 286 279 233 306 75 62 36 40 41 42 51 71 91
311 313 311 309 309 314 314 315 315 314 308 308 307 307 311 316 320 327 334 338 326 326 320 314 308 303 301 314 320 322 318 321 339 63 110 103 82 64 76 79 65 76 88